Weather History for Louisville Bowman, KY

Change the Weather History Date:

Friday, January 6, 2012

  Actual Average Record
Temperature  
Mean Temperature 53 °F 34 °F  
Max Temperature 64 °F 42 °F 66 °F (1998)
Min Temperature 42 °F 27 °F -3 °F (2014)
Degree Days  
Heating Degree Days 12 30  
Month to date heating degree days 156 180  
Since 1 July heating degree days 1536 1844  
Cooling Degree Days 0 0  
Month to date cooling degree days 0 0  
Year to date cooling degree days 0 0  
Growing Degree Days 3 (Base 50)    
Moisture  
Dew Point 30 °F    
Average Humidity 42    
Maximum Humidity 58    
Minimum Humidity 26    
Precipitation  
Precipitation 0.00 in 0.11 in 0.97 in (1991)
Month to date precipitation T 0.76  
Year to date precipitation T 0.76  
Sea Level Pressure  
Sea Level Pressure 29.92 in    
Wind  
Wind Speed 7 mph (SSW)    
Max Wind Speed 16 mph    
Max Gust Speed 22 mph    
Visibility 10 miles    
Events      
T = Trace of Precipitation, MM = Missing Value Source: NWS Daily Summary

Daily Weather History Graph

Daily Weather History Graph

Search for Another Location

Airport:

Trip Planner

Search our weather history database for the weather conditions in past years. The results will help you decide how hot, cold, wet, or windy it might be!

Date:

Astronomy

Jan. 06, 2012 Rise Set
Actual Time 7:59 AM EST 5:37 PM EST
Civil Twilight 7:30 AM EST 6:06 PM EST
Nautical Twilight 6:57 AM EST 6:39 PM EST
Astronomical Twilight 6:25 AM EST 7:11 PM EST
Moon 3:27 PM EST (1/6) 5:38 AM EST (1/6)
Length of Visible Light 10h 36m
Length of Day
9h 37m
Waxing Gibbous, 93% of the Moon is Illuminated
Jan 6
Waxing Gibbous
Jan 9
Full
Jan 16
Last Quarter
Jan 23
New
Jan 30
First Quarter

Hourly Weather History & Observations

Time (EST) Temp. Windchill Dew Point Humidity Pressure Visibility Wind Dir Wind Speed Gust Speed Precip Events Conditions
12:53 AM 46.9 °F - 28.0 °F 48% 29.98 in 10.0 mi SW 6.9 mph - N/A   Clear
1:53 AM 48.0 °F - 28.0 °F 46% 29.97 in 10.0 mi SSW 8.1 mph - N/A   Clear
2:53 AM 48.2 °F - 28.4 °F 46% 29.97 in 10.0 mi SSW 6.9 mph - N/A   Clear
3:53 AM 46.9 °F - 28.0 °F 48% 29.97 in 10.0 mi SSW 6.9 mph - N/A   Clear
4:53 AM 45.0 °F 41.2 °F 28.9 °F 53% 29.96 in 10.0 mi SSW 6.9 mph - N/A   Clear
5:53 AM 44.1 °F 40.8 °F 28.9 °F 55% 29.97 in 10.0 mi SSW 5.8 mph - N/A   Clear
6:53 AM 43.0 °F 40.3 °F 28.9 °F 58% 29.97 in 10.0 mi South 4.6 mph - N/A   Clear
7:53 AM 42.1 °F 40.2 °F 28.9 °F 60% 29.96 in 10.0 mi South 3.5 mph - N/A   Clear
8:53 AM 44.1 °F - 30.0 °F 58% 29.97 in 10.0 mi Calm Calm - N/A   Clear
9:53 AM 50.0 °F - 30.9 °F 48% 29.99 in 10.0 mi SSW 8.1 mph - N/A   Clear
10:53 AM 53.1 °F - 30.9 °F 43% 29.99 in 10.0 mi SSW 11.5 mph - N/A   Clear
11:53 AM 55.9 °F - 30.9 °F 39% 29.95 in 10.0 mi SSW 8.1 mph - N/A   Clear
12:53 PM 59.0 °F - 30.9 °F 35% 29.92 in 10.0 mi SW 8.1 mph 18.4 mph N/A   Clear
1:53 PM 62.6 °F - 30.2 °F 30% 29.89 in 10.0 mi SW 13.8 mph - N/A   Clear
2:53 PM 64.0 °F - 28.9 °F 27% 29.86 in 10.0 mi SSW 12.7 mph 21.9 mph N/A   Clear
3:53 PM 64.0 °F - 28.0 °F 26% 29.86 in 10.0 mi SSW 12.7 mph - N/A   Clear
4:53 PM 63.0 °F - 28.9 °F 28% 29.86 in 10.0 mi SSW 9.2 mph 17.3 mph N/A   Clear
5:53 PM 60.1 °F - 28.0 °F 30% 29.86 in 10.0 mi South 6.9 mph - N/A   Clear
6:53 PM 57.9 °F - 28.9 °F 33% 29.87 in 10.0 mi SSW 5.8 mph - N/A   Clear
7:53 PM 55.9 °F - 28.9 °F 36% 29.87 in 10.0 mi Calm Calm - N/A   Clear
8:53 PM 52.0 °F - 30.0 °F 43% 29.87 in 10.0 mi South 3.5 mph - N/A   Clear
9:53 PM 54.0 °F - 32.0 °F 43% 29.87 in 10.0 mi South 3.5 mph - N/A   Mostly Cloudy
10:53 PM 55.0 °F - 34.0 °F 45% 29.86 in 10.0 mi South 3.5 mph - N/A   Mostly Cloudy
11:53 PM 55.9 °F - 37.0 °F 49% 29.85 in 10.0 mi South 4.6 mph - N/A   Partly Cloudy